TimeEST,TemperatureF,Dew PointF,Humidity,Sea Level PressureIn,VisibilityMPH,Wind Direction,Wind SpeedMPH,Gust SpeedMPH,PrecipitationIn,Events,Conditions,WindDirDegrees,DateUTC
12:54 AM,10.0,-4.0,53,29.92,10.0,West,12.7,20.7,N/A,,Clear,270,2013-02-18 05:54:00
1:54 AM,10.0,-4.0,53,29.95,10.0,West,10.4,18.4,N/A,,Clear,280,2013-02-18 06:54:00
2:54 AM,9.0,-5.1,53,29.97,10.0,WNW,10.4,19.6,N/A,,Clear,290,2013-02-18 07:54:00
3:54 AM,8.1,-4.0,58,30.00,10.0,West,5.8,-,N/A,,Clear,260,2013-02-18 08:54:00
4:54 AM,7.0,-5.1,58,30.03,10.0,West,11.5,17.3,N/A,,Clear,270,2013-02-18 09:54:00
5:54 AM,6.1,-5.1,60,30.06,10.0,WSW,5.8,-,N/A,,Clear,250,2013-02-18 10:54:00
6:54 AM,6.1,-5.1,60,30.11,10.0,WSW,9.2,17.3,N/A,,Clear,250,2013-02-18 11:54:00
7:54 AM,7.0,-5.1,58,30.14,10.0,Variable,4.6,-,N/A,,Clear,0,2013-02-18 12:54:00
8:54 AM,10.0,-4.0,53,30.16,10.0,WNW,10.4,18.4,N/A,,Clear,300,2013-02-18 13:54:00
9:54 AM,12.9,-5.1,45,30.15,10.0,West,15.0,21.9,N/A,,Clear,280,2013-02-18 14:54:00
10:54 AM,16.0,-4.0,41,30.16,10.0,WNW,13.8,23.0,N/A,,Clear,290,2013-02-18 15:54:00
11:54 AM,19.9,-4.0,35,30.16,10.0,West,9.2,19.6,N/A,,Clear,280,2013-02-18 16:54:00
12:54 PM,19.9,-6.0,32,30.14,10.0,West,10.4,18.4,N/A,,Clear,270,2013-02-18 17:54:00
1:54 PM,23.0,-5.1,29,30.12,10.0,WNW,8.1,-,N/A,,Clear,300,2013-02-18 18:54:00
2:54 PM,24.1,-2.9,31,30.12,10.0,West,9.2,19.6,N/A,,Clear,280,2013-02-18 19:54:00
3:54 PM,25.0,-0.9,33,30.14,10.0,Variable,4.6,-,N/A,,Unknown,0,2013-02-18 20:54:00
4:54 PM,23.0,-0.0,37,30.15,10.0,Variable,4.6,-,N/A,,Clear,0,2013-02-18 21:54:00
5:54 PM,21.9,1.0,40,30.16,10.0,West,4.6,-,N/A,,Clear,260,2013-02-18 22:54:00
6:54 PM,21.0,1.9,44,30.18,10.0,Calm,Calm,-,N/A,,Clear,0,2013-02-18 23:54:00
7:54 PM,18.0,3.0,52,30.18,10.0,Calm,Calm,-,N/A,,Clear,0,2013-02-19 00:54:00
8:54 PM,12.9,5.0,71,30.16,10.0,Calm,Calm,-,N/A,,Clear,0,2013-02-19 01:54:00
9:54 PM,12.9,3.9,67,30.17,10.0,Calm,Calm,-,N/A,,Clear,0,2013-02-19 02:54:00
10:54 PM,14.0,3.9,64,30.15,10.0,Calm,Calm,-,N/A,,Clear,0,2013-02-19 03:54:00
11:54 PM,16.0,5.0,62,30.15,10.0,SE,5.8,-,N/A,,Clear,140,2013-02-19 04:54:00